This demonstration page uses our WeatherBlox Daily Observations layout. Learn more.

41.86663, -103.66717

Hourly Observations for June 26, 2019

Temp ( °F °C ) Dew Point ( °F °C ) Humidity (%) Winds ( mph kmh ) Pressure ( in mb ) Visibility ( mi km ) Precip ( " mm )
12:53 am 00:53 Clear 62 16.7 52 11.1 70 70 SE 8 13 29.84 1011 10 16.0934 0 0
1:53 am 01:53 Clear 59 15 53 11.7 81 81 E 10 17 29.85 1011 10 16.0934 0 0
2:53 am 02:53 Clear 62 16.7 60 15.6 93 93 ESE 8 13 29.84 1010 10 16.0934 0 0
3:53 am 03:53 Clear 57 14 N/A N/A ESE 7 11 29.83 1010 10 16.0934 0 0
4:53 am 04:53 Clear 57 14 N/A N/A NNE 7 11 29.85 1011 10 16.0934 0 0
5:53 am 05:53 Sunny 57 14 N/A N/A NE 7 11 29.85 1011 10 16.0934 0 0
6:53 am 06:53 Sunny 61 16 N/A N/A WNW 5 7 29.85 1011 10 16.0934 0 0
7:53 am 07:53 Sunny 66 18.9 62 16.7 87 87 Calm 29.85 1011 10 16.0934 0 0
8:53 am 08:53 Sunny 72 22.2 62 16.7 71 71 Calm 29.84 1011 10 16.0934 0 0
9:53 am 09:53 Sunny 76 24.4 68 20 77 77 E 3 6 29.85 1011 10 16.0934 0 0
10:53 am 10:53 Sunny 79 26.1 68 20 69 69 VRB 3 6 29.85 1011 10 16.0934 0 0
11:53 am 11:53 Sunny 82 27.8 73 22.8 74 74 VRB 3 6 29.84 1011 10 16.0934 0 0
12:53 pm 12:53 Sunny 85 29.4 75 23.9 72 72 SE 12 19 29.83 1010 10 16.0934 0 0
1:53 pm 13:53 Sunny 88 31.1 80 26.7 77 77 ESE 15 24 29.82 1010 10 16.0934 0 0
2:53 pm 14:53 Sunny 92 33.3 86 30 83 83 E 12 19 29.79 1009 10 16.0934 0 0
3:53 pm 15:53 Sunny 91 32.8 84 28.9 80 80 SE 16 26 29.78 1008 10 16.0934 0 0
4:53 pm 16:53 Sunny 83 28.3 73 22.8 72 72 SSE 9 15 29.82 1010 10 16.0934 0 0
5:21 pm 17:21 Sunny with Thunderstorms 82 28 70 21 66 66 Calm 29.67 1005 10 16.0934 0 0
5:53 pm 17:53 Windy with Storms Likely 82 27.8 71 21.7 69 69 NE 21 33 29.82 1010 10 16.0934 0 0.0254
6:20 pm 18:20 Cloudy with Thunderstorms 72 22.2 61 16.1 68 68 WSW 16 26 29.77 1008 5 8.0467 0.03 0.762
6:39 pm 18:39 Partly Cloudy with Thunderstorms 65 18.3 57 13.9 76 76 undefined N/A 29.91 1013 2 3.21868 0.16 4.064
6:53 pm 18:53 Partly Cloudy with Heavy Thunderstorms 64 17.8 57 13.9 78 78 ENE 23 37 29.91 1013 2.5 4.02335 0.27 6.858
7:01 pm 19:01 Windy with Storms Likely 64 17.8 56 13.3 75 75 ENE 20 31 29.84 1011 7 11.26538 0.01 0.254
7:17 pm 19:17 Partly Cloudy with Nearby Thunderstorms 66 18.9 56 13.3 70 70 ENE 22 35 29.81 1009 10 16.0934 0.01 0.254
7:30 pm 19:30 Sunny 68 20 56 13.3 65 65 NE 21 33 29.78 1009 10 16.0934 0.01 0.254
7:53 pm 19:53 Sunny 69 20.6 57 13.9 66 66 NE 18 30 29.85 1011 10 16.0934 0.01 0.254
8:53 pm 20:53 Clear 69 20.6 56 13.3 63 63 ENE 14 22 29.83 1010 10 16.0934 0 0
9:53 pm 21:53 Clear 64 17.8 56 13.3 75 75 SSW 6 9 29.84 1011 10 16.0934 0 0
10:53 pm 22:53 Clear 62 16.7 58 14.4 86 86 NE 5 7 29.83 1010 10 16.0934 0 0
11:53 pm 23:53 Clear 62 16.7 58 14.4 86 86 NE 8 13 29.85 1011 10 16.0934 0 0

Powered by AerisWeather